Time,TemperatureF,DewpointF,PressureIn,WindDirection,WindDirectionDegrees,WindSpeedMPH,WindSpeedGustMPH,Humidity,HourlyPrecipIn,Conditions,Clouds,dailyrainin,SoftwareType,DateUTC
2013-09-02 00:03:00,62.0,58.0,29.89,WNW,290,2.0,-999.0,88,-99.99,,,-99.99,,2013-09-02 05:03:00,
2013-09-02 00:13:00,62.0,58.0,29.89,WNW,290,2.0,-999.0,88,-99.99,,,-99.99,,2013-09-02 05:13:00,
2013-09-02 00:23:00,62.0,59.0,29.90,WNW,286,2.0,-999.0,89,-99.99,,,-99.99,,2013-09-02 05:23:00,
2013-09-02 00:52:00,61.0,58.0,29.90,WNW,285,2.0,-999.0,89,-99.99,,,-99.99,,2013-09-02 05:52:00,
2013-09-02 01:12:00,60.0,57.0,29.91,WNW,285,2.0,-999.0,90,-99.99,,,-99.99,,2013-09-02 06:12:00,
2013-09-02 01:22:00,60.0,57.0,29.91,WNW,285,3.0,-999.0,90,-99.99,,,-99.99,,2013-09-02 06:22:00,
2013-09-02 01:43:00,60.0,57.0,29.91,WNW,285,3.0,-999.0,90,-99.99,,,-99.99,,2013-09-02 06:43:00,
2013-09-02 01:52:00,60.0,57.0,29.91,West,278,5.0,-999.0,91,-99.99,,,-99.99,,2013-09-02 06:52:00,
2013-09-02 02:11:00,60.0,57.0,29.91,West,278,3.0,-999.0,91,-99.99,,,-99.99,,2013-09-02 07:11:00,
2013-09-02 02:21:00,60.0,58.0,29.91,WNW,284,3.0,-999.0,92,-99.99,,,-99.99,,2013-09-02 07:21:00,
2013-09-02 02:52:00,60.0,58.0,29.91,West,279,4.0,-999.0,92,-99.99,,,-99.99,,2013-09-02 07:52:00,
2013-09-02 03:11:00,60.0,57.0,29.91,WNW,288,4.0,-999.0,91,-99.99,,,-99.99,,2013-09-02 08:11:00,
2013-09-02 03:22:00,59.0,56.0,29.91,WNW,288,4.0,-999.0,91,-99.99,,,-99.99,,2013-09-02 08:22:00,
2013-09-02 03:52:00,60.0,57.0,29.92,WNW,290,5.0,-999.0,90,-99.99,,,-99.99,,2013-09-02 08:52:00,
2013-09-02 04:22:00,59.0,56.0,29.93,WNW,294,5.0,-999.0,91,-99.99,,,-99.99,,2013-09-02 09:22:00,
2013-09-02 04:53:00,58.0,56.0,29.92,WNW,291,5.0,-999.0,92,-99.99,,,-99.99,,2013-09-02 09:53:00,
2013-09-02 05:22:00,57.0,55.0,29.93,WNW,292,5.0,-999.0,93,-99.99,,,-99.99,,2013-09-02 10:22:00,
2013-09-02 05:53:00,57.0,55.0,29.95,WNW,294,5.0,-999.0,94,-99.99,,,-99.99,,2013-09-02 10:53:00,
2013-09-02 06:11:00,57.0,55.0,29.95,WNW,300,5.0,-999.0,93,-99.99,,,-99.99,,2013-09-02 11:11:00,
2013-09-02 06:22:00,57.0,55.0,29.95,WNW,301,5.0,-999.0,94,-99.99,,,-99.99,,2013-09-02 11:22:00,
2013-09-02 06:52:00,57.0,55.0,29.96,NW,307,5.0,-999.0,94,-99.99,,,-99.99,,2013-09-02 11:52:00,
2013-09-02 07:12:00,57.0,55.0,29.97,NW,307,5.0,-999.0,94,-99.99,,,-99.99,,2013-09-02 12:12:00,
2013-09-02 07:21:00,57.0,55.0,29.98,WNW,303,4.0,-999.0,94,-99.99,,,-99.99,,2013-09-02 12:21:00,
2013-09-02 07:52:00,57.0,55.0,29.98,NW,305,4.0,-999.0,94,-99.99,,,-99.99,,2013-09-02 12:52:00,
2013-09-02 08:11:00,58.0,56.0,29.99,NW,313,5.0,-999.0,94,-99.99,,,-99.99,,2013-09-02 13:11:00,
2013-09-02 08:22:00,59.0,57.0,29.99,NNW,327,5.0,-999.0,92,-99.99,,,-99.99,,2013-09-02 13:22:00,
2013-09-02 08:52:00,60.0,56.0,30.00,North,11,7.0,-999.0,87,-99.99,,,-99.99,,2013-09-02 13:52:00,
2013-09-02 09:11:00,61.0,56.0,29.99,North,5,7.0,-999.0,84,-99.99,,,-99.99,,2013-09-02 14:11:00,
2013-09-02 09:22:00,62.0,56.0,30.00,NNW,340,6.0,-999.0,81,-99.99,,,-99.99,,2013-09-02 14:22:00,
2013-09-02 09:52:00,63.0,56.0,30.00,NNE,19,6.0,-999.0,79,-99.99,,,-99.99,,2013-09-02 14:52:00,
2013-09-02 10:12:00,64.0,56.0,30.01,NNE,25,6.0,-999.0,75,-99.99,,,-99.99,,2013-09-02 15:12:00,
2013-09-02 10:23:00,65.0,57.0,30.01,NNW,333,5.0,-999.0,75,-99.99,,,-99.99,,2013-09-02 15:23:00,
2013-09-02 10:55:00,67.0,56.0,30.01,NNW,327,6.0,-999.0,68,-99.99,,,-99.99,,2013-09-02 15:55:00,
2013-09-02 11:14:00,67.0,55.0,30.01,NNW,331,8.0,-999.0,66,-99.99,,,-99.99,,2013-09-02 16:14:00,
2013-09-02 11:24:00,67.0,56.0,30.01,North,355,8.0,-999.0,68,-99.99,,,-99.99,,2013-09-02 16:24:00,
2013-09-02 11:53:00,66.0,54.0,30.01,NW,307,10.0,-999.0,66,-99.99,,,-99.99,,2013-09-02 16:53:00,
2013-09-02 12:12:00,68.0,55.0,30.01,North,355,8.0,-999.0,63,-99.99,,,-99.99,,2013-09-02 17:12:00,
2013-09-02 12:23:00,68.0,54.0,30.01,West,277,8.0,-999.0,61,-99.99,,,-99.99,,2013-09-02 17:23:00,
2013-09-02 12:52:00,69.0,55.0,30.02,NW,317,7.0,-999.0,61,-99.99,,,-99.99,,2013-09-02 17:52:00,
2013-09-02 13:13:00,69.0,54.0,30.02,NW,304,8.0,-999.0,58,-99.99,,,-99.99,,2013-09-02 18:13:00,
2013-09-02 13:22:00,70.0,55.0,30.01,North,9,7.0,-999.0,58,-99.99,,,-99.99,,2013-09-02 18:22:00,
2013-09-02 13:52:00,70.0,55.0,30.00,NW,325,8.0,-999.0,59,-99.99,,,-99.99,,2013-09-02 18:52:00,
2013-09-02 14:12:00,71.0,55.0,30.00,NW,325,8.0,-999.0,57,-99.99,,,-99.99,,2013-09-02 19:12:00,
2013-09-02 14:22:00,71.0,54.0,30.00,WNW,303,9.0,-999.0,56,-99.99,,,-99.99,,2013-09-02 19:22:00,
2013-09-02 14:52:00,71.0,54.0,29.99,North,355,8.0,-999.0,56,-99.99,,,-99.99,,2013-09-02 19:52:00,
2013-09-02 15:12:00,71.0,54.0,29.99,NNW,345,7.0,-999.0,56,-99.99,,,-99.99,,2013-09-02 20:12:00,
2013-09-02 15:22:00,71.0,54.0,29.99,NNW,336,7.0,-999.0,54,-99.99,,,-99.99,,2013-09-02 20:22:00,
2013-09-02 15:52:00,71.0,54.0,29.99,North,355,7.0,-999.0,54,-99.99,,,-99.99,,2013-09-02 20:52:00,
2013-09-02 16:23:00,72.0,54.0,29.99,NNW,348,7.0,-999.0,54,-99.99,,,-99.99,,2013-09-02 21:23:00,
2013-09-02 16:55:00,71.0,54.0,29.98,NW,314,8.0,-999.0,55,-99.99,,,-99.99,,2013-09-02 21:55:00,
2013-09-02 17:13:00,72.0,55.0,29.98,WNW,298,6.0,-999.0,55,-99.99,,,-99.99,,2013-09-02 22:13:00,
2013-09-02 17:24:00,71.0,54.0,29.98,NW,313,8.0,-999.0,55,-99.99,,,-99.99,,2013-09-02 22:24:00,
2013-09-02 17:54:00,71.0,55.0,29.98,NW,304,6.0,-999.0,57,-99.99,,,-99.99,,2013-09-02 22:54:00,
2013-09-02 18:12:00,71.0,55.0,29.98,NNW,344,6.0,-999.0,58,-99.99,,,-99.99,,2013-09-02 23:12:00,
2013-09-02 18:22:00,70.0,56.0,29.98,NNE,16,7.0,-999.0,61,-99.99,,,-99.99,,2013-09-02 23:22:00,
2013-09-02 18:53:00,68.0,56.0,29.99,ENE,60,8.0,-999.0,65,-99.99,,,-99.99,,2013-09-02 23:53:00,
2013-09-02 19:12:00,66.0,55.0,29.99,NNE,24,7.0,-999.0,68,-99.99,,,-99.99,,2013-09-03 00:12:00,
2013-09-02 19:21:00,65.0,55.0,30.00,NNE,20,7.0,-999.0,69,-99.99,,,-99.99,,2013-09-03 00:21:00,
2013-09-02 19:42:00,64.0,54.0,30.00,North,360,7.0,-999.0,71,-99.99,,,-99.99,,2013-09-03 00:42:00,
2013-09-02 19:52:00,63.0,54.0,30.00,NNE,17,5.0,-999.0,72,-99.99,,,-99.99,,2013-09-03 00:52:00,
2013-09-02 20:11:00,62.0,54.0,30.00,NNE,15,4.0,-999.0,75,-99.99,,,-99.99,,2013-09-03 01:11:00,
2013-09-02 20:21:00,61.0,54.0,30.00,NNE,13,4.0,-999.0,77,-99.99,,,-99.99,,2013-09-03 01:21:00,
2013-09-02 20:42:00,60.0,53.0,30.00,NNE,19,4.0,-999.0,78,-99.99,,,-99.99,,2013-09-03 01:42:00,
2013-09-02 20:52:00,60.0,54.0,30.00,NNE,25,3.0,-999.0,80,-99.99,,,-99.99,,2013-09-03 01:52:00,
2013-09-02 21:12:00,59.0,53.0,30.01,North,355,3.0,-999.0,81,-99.99,,,-99.99,,2013-09-03 02:12:00,
2013-09-02 21:21:00,59.0,54.0,30.01,NNE,32,4.0,-999.0,82,-99.99,,,-99.99,,2013-09-03 02:21:00,
2013-09-02 21:42:00,58.0,53.0,30.01,NNE,31,3.0,-999.0,82,-99.99,,,-99.99,,2013-09-03 02:42:00,
2013-09-02 21:52:00,58.0,53.0,30.02,NNE,32,2.0,-999.0,84,-99.99,,,-99.99,,2013-09-03 02:52:00,
2013-09-02 22:23:00,57.0,53.0,30.02,NNE,20,3.0,-999.0,85,-99.99,,,-99.99,,2013-09-03 03:23:00,
2013-09-02 22:55:00,56.0,52.0,30.02,NNE,20,1.0,-999.0,85,-99.99,,,-99.99,,2013-09-03 03:55:00,
2013-09-02 23:13:00,55.0,51.0,30.02,NNE,20,3.0,-999.0,87,-99.99,,,-99.99,,2013-09-03 04:13:00,
2013-09-02 23:25:00,55.0,51.0,30.03,NNE,30,3.0,-999.0,87,-99.99,,,-99.99,,2013-09-03 04:25:00,
2013-09-02 23:34:00,55.0,51.0,30.03,NNE,30,3.0,-999.0,87,-99.99,,,-99.99,,2013-09-03 04:34:00,
2013-09-02 23:53:00,55.0,52.0,30.03,NNE,30,2.0,-999.0,88,-99.99,,,-99.99,,2013-09-03 04:53:00,